[[{"header":{"parameterUnit":"m.s-1","parameterCategory":1,"la1":30.2991,"la2":30.254,"lo1":-89.0895,"lo2":-89.0444,"dy":0.0017,"dx":0.0017,"nx":28,"ny":28,"refTime":"2024-07-07T21:00:00:Z","depth":0,"parameterNumber":2,"parameterNumberName":"U-component_of_WINDS"},"data":[0,0,0,0,0,0,0,0,0,0,0,0,0,0,0,0,0,0,0,0,0,0,0,0,0,0,0,0,0,0,0,0,0,0,0,0,0,0,0,0,0,0,0,0,0,0,0,0,0,0,0,0,0,0,0,0,0,0,2.4489,2.4489,0,2.4425,2.4424,2.4423,2.4304,2.4302,2.43,2.4298,2.4232,2.4232,2.4233,0,0,0,0,0,0,0,0,0,0,0,0,0,2.4509,2.4509,2.4489,2.4488,2.4488,2.4425,2.4424,2.4423,2.4305,2.4302,2.4299,2.4297,2.4232,2.4232,2.4233,0,0,0,0,0,0,0,0,0,0,0,0,0,2.4478,2.451,2.4489,2.4421,2.4414,2.4425,2.4424,2.4423,2.4305,2.4302,2.4298,2.4295,2.4232,2.4232,2.4233,2.4305,0,0,2.4235,2.4235,0,0,0,0,0,0,0,0,2.448,2.4478,2.4432,2.4426,2.4418,2.4369,2.4407,2.4383,2.4306,2.4347,2.4297,2.4294,2.428,2.4277,2.4272,2.4302,2.4299,2.4235,2.4235,2.4235,2.4236,0,0,0,0,0,0,0,2.4482,2.448,2.4464,2.4431,2.4423,2.4393,2.4385,2.4402,2.4334,2.4343,2.4334,2.4328,2.4276,2.4272,2.427,2.4298,2.4235,2.4235,2.4236,2.4236,2.438,2.4383,0,0,0,0,0,0,2.4495,2.4482,2.4466,2.4462,2.4441,2.4396,2.4386,2.4388,2.4333,2.4321,2.4331,2.4323,2.4273,2.4269,2.4267,2.4345,2.4235,2.4236,2.4236,2.4377,2.4381,2.4385,0,0,0,0,0,0,2.4496,2.4494,2.4468,2.447,2.4464,2.4399,2.4402,2.4389,2.4384,2.4324,2.4311,2.4339,2.427,2.4266,2.4296,2.4341,2.4236,2.4237,2.4373,2.4378,2.4383,2.4503,0,0,0,0,0,0,2.4497,2.4495,2.4523,2.4471,2.4464,2.4499,2.4405,2.439,2.4386,2.4374,2.4329,2.4318,2.4267,2.4295,2.4296,2.434,2.4237,2.4368,2.4375,2.4381,2.4495,2.4512,2.4527,0,0,0,0,0,2.4498,2.456,2.4525,2.4523,2.4497,2.4502,2.4498,2.4438,2.439,2.4416,2.4377,2.4319,2.4337,2.4299,2.4299,2.4344,2.4365,2.4373,2.4381,2.4488,2.4509,2.4526,0,0,0,0,0,0,2.462,2.4552,2.4512,2.456,2.4537,2.4482,2.4513,2.4462,2.4453,2.4443,2.4369,2.436,2.4398,2.4374,2.4334,2.4409,2.4341,2.435,2.4423,2.4442,2.4458,2.4462,2.4238,0,0,0,0,0,2.4652,2.4661,2.4602,2.465,2.464,2.4579,2.4579,2.4534,2.4508,2.4498,2.4461,2.4438,2.4437,2.4439,2.4436,2.4491,2.4478,2.4522,2.4538,2.4551,2.4558,2.4583,2.46,2.441,2.441,2.441,0,0,2.4719,2.4683,2.4694,2.4673,2.465,2.4661,2.4572,2.4588,2.4594,2.45,2.4525,2.4497,2.4466,2.4508,2.4525,2.4489,2.4608,2.4561,2.4572,2.4572,2.4593,2.4611,2.4627,2.4416,2.4415,2.4414,0,0,2.4845,2.4821,2.4856,2.4834,2.4801,2.4759,2.4768,2.4719,2.4697,2.472,2.4649,2.4656,2.4658,2.4638,2.4628,2.4745,2.469,2.4746,2.4828,2.4852,2.4867,2.488,2.4919,2.4934,2.4754,2.4754,2.4754,0,2.4933,2.4945,2.4881,2.4899,2.4891,2.4807,2.484,2.4823,2.4791,2.4787,2.4748,2.4746,2.472,2.4754,2.4782,2.4778,2.4784,2.475,2.4871,2.4883,2.4894,2.493,2.4945,2.4761,2.476,2.4759,2.4759,0,2.5053,2.5063,2.5096,2.5064,2.506,2.5087,2.5025,2.5029,2.4985,2.4947,2.497,2.4935,2.4922,2.4927,2.4885,2.4955,2.4933,2.4884,2.4814,2.492,2.4952,2.4966,2.4771,2.4768,2.4766,2.4764,0,0,2.5254,2.5185,2.5198,2.5181,2.5137,2.5144,2.5166,2.5152,2.5155,2.5136,2.5151,2.5153,2.5106,2.5095,2.5049,2.5072,2.5162,2.5018,2.5016,2.5044,2.5234,2.527,2.5287,2.5127,2.5129,2.5131,2.5235,0,2.5368,2.5402,2.5343,2.539,2.5397,2.5316,2.5335,2.5309,2.5275,2.5275,2.5236,2.5238,2.5177,2.5169,2.5188,2.5148,2.5199,2.5139,2.5138,2.5139,2.5146,2.5304,2.5343,2.5443,2.5248,2.525,2.5252,0,2.5507,2.5492,2.5539,2.549,2.549,2.5509,2.5489,2.5492,2.546,2.5433,2.542,2.5366,2.5383,2.5317,2.5338,2.5299,2.5295,2.5275,2.5277,2.5273,2.52,2.5301,2.5473,2.5488,2.5271,2.527,2.5268,0,2.5644,2.5637,2.5663,2.5652,2.5596,2.561,2.5587,2.5553,2.5547,2.5531,2.5526,2.5513,2.5505,2.5495,2.5438,2.5396,2.5465,2.5395,2.5441,2.5443,2.5458,2.5457,2.5629,2.546,2.546,2.546,2.5459,0,2.5776,2.5808,2.5724,2.574,2.5772,2.5704,2.5738,2.5707,2.5676,2.5684,2.5614,2.5623,2.5548,2.5549,2.5504,2.5527,2.5525,2.5502,2.5489,2.5506,2.5509,2.5501,2.5492,2.5463,2.5463,2.5462,2.5461,0,2.5935,2.588,2.5903,2.5847,2.5834,2.586,2.5812,2.5824,2.5784,2.5795,2.5793,2.5731,2.5728,2.567,2.5655,2.5625,2.5664,2.564,2.5674,2.5665,2.5714,2.5709,2.5884,2.5903,2.5725,2.5727,2.5729,0,2.6021,2.6043,2.599,2.5989,2.597,2.5971,2.5964,2.5899,2.5895,2.586,2.5875,2.5866,2.5855,2.5852,2.5806,2.5793,2.5766,2.5828,2.5763,2.5779,2.5763,2.5761,2.5762,2.5841,2.5844,2.5845,2.5847,0,2.618,2.6151,2.6145,2.6128,2.6122,2.6106,2.6086,2.609,2.6017,2.6016,2.6011,2.6002,2.5985,2.5976,2.5955,2.593,2.5876,2.5868,2.5877,2.5894,2.5912,2.59,2.5709,2.5864,2.5862,2.5861,2.586,2.5859,2.6302,2.6317,2.6281,2.6275,2.6253,2.6235,2.6242,2.6203,2.6198,2.6179,2.614,2.6141,2.6107,2.6072,2.6052,2.6051,2.6018,2.6033,2.6036,2.604,2.6048,2.5914,2.6047,2.6046,2.6046,2.6045,2.6045,0,2.6454,2.6427,2.6422,2.6395,2.639,2.634,2.6315,2.6314,2.6315,2.6288,2.6278,2.6271,2.6261,2.6214,2.6198,2.6206,2.6181,2.6204,2.6201,2.6196,2.6079,2.6071,2.6224,2.6224,2.6224,2.6224,2.6224,2.6224,2.6533,2.6553,2.6521,2.6529,2.6501,2.65,2.649,2.6472,2.645,2.6445,2.6437,2.6406,2.6369,2.6351,2.6339,2.6325,2.6321,2.6353,2.633,2.6222,2.6205,2.6188,2.618,2.6353,2.6353,2.6446,2.6447,2.6448]},{"header":{"parameterUnit":"m.s-1","parameterCategory":1,"la1":30.2991,"la2":30.254,"lo1":-89.0895,"lo2":-89.0444,"dy":0.0017,"dx":0.0017,"nx":28,"ny":28,"refTime":"2024-07-07T21:00:00:Z","depth":0,"parameterNumber":3,"parameterNumberName":"V-component_of_WINDS"},"data":[0,0,0,0,0,0,0,0,0,0,0,0,0,0,0,0,0,0,0,0,0,0,0,0,0,0,0,0,0,0,0,0,0,0,0,0,0,0,0,0,0,0,0,0,0,0,0,0,0,0,0,0,0,0,0,0,0,0,7.4494,7.4495,0,7.4552,7.4553,7.4553,7.4462,7.4459,7.4456,7.4453,7.4506,7.451,7.4515,0,0,0,0,0,0,0,0,0,0,0,0,0,7.4296,7.43,7.4494,7.4495,7.4495,7.4552,7.4553,7.4554,7.4463,7.4459,7.4455,7.4451,7.4505,7.451,7.4515,0,0,0,0,0,0,0,0,0,0,0,0,0,7.437,7.4301,7.4494,7.4457,7.4454,7.4552,7.4553,7.4554,7.4463,7.4459,7.4454,7.445,7.4503,7.4509,7.4516,7.465,0,0,7.4536,7.4538,0,0,0,0,0,0,0,0,7.4366,7.4378,7.4462,7.446,7.4457,7.4495,7.4502,7.4586,7.4465,7.446,7.4453,7.4447,7.4506,7.4512,7.4533,7.4652,7.4655,7.4536,7.454,7.4543,7.4545,0,0,0,0,0,0,0,7.4361,7.4375,7.4517,7.4463,7.446,7.4435,7.444,7.4518,7.4508,7.446,7.4453,7.4462,7.4503,7.4527,7.4533,7.4655,7.4536,7.4542,7.4546,7.4548,7.4885,7.4889,0,0,0,0,0,0,7.4362,7.4371,7.4515,7.4518,7.4399,7.4442,7.4448,7.4487,7.4507,7.4506,7.4466,7.4457,7.4518,7.4526,7.4535,7.4691,7.4543,7.4549,7.4553,7.488,7.4886,7.4891,0,0,0,0,0,0,7.4358,7.4375,7.4512,7.4443,7.4459,7.4451,7.4495,7.4491,7.4514,7.4512,7.4509,7.4492,7.4515,7.4526,7.4622,7.4691,7.4552,7.4558,7.4874,7.4882,7.4889,7.5006,0,0,0,0,0,0,7.4352,7.4375,7.4427,7.4445,7.4463,7.4601,7.45,7.4496,7.4527,7.4516,7.4535,7.4534,7.4512,7.4612,7.4628,7.4698,7.4563,7.4867,7.4877,7.4886,7.4995,7.5016,7.5034,0,0,0,0,0,7.4346,7.4457,7.4431,7.4448,7.4529,7.4605,7.4615,7.4589,7.4533,7.4584,7.4582,7.4533,7.4682,7.4623,7.464,7.4713,7.4863,7.4874,7.4885,7.4987,7.5012,7.5034,0,0,0,0,0,0,7.4446,7.4459,7.4429,7.4551,7.4578,7.459,7.4654,7.4617,7.4659,7.4647,7.4611,7.4616,7.4719,7.4725,7.466,7.4842,7.4762,7.4778,7.4834,7.4858,7.4877,7.4872,7.4568,0,0,0,0,0,7.4483,7.4546,7.4553,7.4659,7.4674,7.4662,7.4694,7.4672,7.4698,7.4708,7.4713,7.4738,7.4789,7.4824,7.4872,7.4997,7.4998,7.5055,7.5074,7.509,7.5103,7.5166,7.5191,7.4928,7.4928,7.4928,0,0,7.4558,7.4573,7.4614,7.4679,7.4697,7.4761,7.4672,7.4743,7.4789,7.4718,7.4809,7.4814,7.4839,7.4949,7.4997,7.4957,7.5176,7.5104,7.5117,7.5121,7.518,7.5205,7.5227,7.4936,7.4935,7.4934,0,0,7.4727,7.4746,7.4835,7.4856,7.4885,7.4877,7.4898,7.4916,7.4917,7.5008,7.4955,7.5008,7.5099,7.5118,7.514,7.5316,7.5271,7.5333,7.5432,7.5495,7.5515,7.5533,7.5593,7.5615,7.5346,7.5346,7.5346,0,7.4816,7.4912,7.4885,7.496,7.4988,7.4929,7.5017,7.5038,7.5081,7.51,7.5056,7.5168,7.5181,7.5293,7.5336,7.5357,7.5378,7.5329,7.5515,7.5533,7.5549,7.5606,7.5629,7.5353,7.5352,7.5352,7.5351,0,7.5018,7.5085,7.5153,7.5198,7.5234,7.5315,7.5298,7.5338,7.5313,7.5308,7.54,7.5413,7.5462,7.5487,7.5463,7.5596,7.557,7.5521,7.544,7.5582,7.5634,7.5656,7.5363,7.5361,7.5359,7.5357,0,0,7.525,7.528,7.5305,7.5323,7.5351,7.5401,7.5479,7.5528,7.5561,7.5593,7.5654,7.5733,7.5687,7.5712,7.5689,7.5744,7.5879,7.5688,7.5688,7.5721,7.6023,7.6058,7.6084,7.5851,7.5855,7.5859,7.602,0,7.5416,7.5552,7.553,7.566,7.5719,7.5664,7.5731,7.5754,7.5751,7.58,7.5796,7.5851,7.5788,7.5802,7.5855,7.5852,7.5939,7.584,7.5905,7.5908,7.5898,7.6112,7.6149,7.6301,7.6041,7.6045,7.6047,0,7.5628,7.5669,7.5806,7.5823,7.5847,7.5908,7.595,7.5998,7.6022,7.6016,7.6044,7.601,7.6084,7.6005,7.6105,7.6038,7.6063,7.6066,7.6071,7.6073,7.5984,7.6117,7.6349,7.6371,7.608,7.6077,7.6075,0,7.578,7.5869,7.5962,7.598,7.6003,7.6046,7.6057,7.6077,7.6108,7.6144,7.6163,7.6207,7.6231,7.6265,7.6243,7.6188,7.6346,7.6265,7.634,7.6341,7.6374,7.6372,7.661,7.6396,7.6395,7.6395,7.6394,0,7.5966,7.6051,7.603,7.6087,7.6179,7.6152,7.6243,7.6248,7.6266,7.632,7.6275,7.6326,7.6296,7.6345,7.6329,7.6412,7.6424,7.6419,7.6413,7.6422,7.6422,7.6435,7.6423,7.6401,7.64,7.6398,7.6397,0,7.615,7.614,7.6237,7.6251,7.6257,7.6324,7.6335,7.6386,7.6381,7.645,7.6464,7.6455,7.651,7.6493,7.6551,7.654,7.6646,7.6628,7.6638,7.6632,7.6708,7.67,7.6961,7.6993,7.6761,7.6763,7.6765,0,7.6268,7.6332,7.6354,7.6388,7.6403,7.6459,7.649,7.6465,7.6499,7.6531,7.6578,7.6629,7.6668,7.6758,7.6755,7.6799,7.678,7.6868,7.6786,7.6792,7.6777,7.6773,7.6778,7.6884,7.6886,7.6889,7.689,0,7.6477,7.6469,7.6517,7.6563,7.6602,7.6636,7.6666,7.6696,7.6673,7.6713,7.677,7.68,7.6861,7.6911,7.6951,7.696,7.6921,7.6917,7.6936,7.6944,7.6946,7.6943,7.668,7.691,7.6908,7.6907,7.6906,7.6905,7.663,7.6683,7.6707,7.676,7.6781,7.681,7.6859,7.686,7.6907,7.6955,7.6937,7.7001,7.7022,7.7072,7.7086,7.7134,7.71,7.7128,7.7135,7.7142,7.715,7.6941,7.7142,7.7141,7.714,7.714,7.714,0,7.6834,7.6846,7.6897,7.6941,7.6983,7.6945,7.6976,7.7013,7.707,7.7094,7.7134,7.7197,7.7246,7.7247,7.7292,7.733,7.7313,7.7342,7.7338,7.734,7.718,7.7157,7.7355,7.7355,7.7355,7.7355,7.7355,7.7355,7.6945,7.7032,7.7027,7.7123,7.7134,7.7198,7.7219,7.7244,7.7262,7.7336,7.7377,7.7378,7.7392,7.7437,7.748,7.7478,7.7496,7.7531,7.7523,7.7373,7.7351,7.7331,7.7309,7.7536,7.7536,7.7679,7.768,7.7681]}]]